TimeCST,TemperatureF,Dew PointF,Humidity,Sea Level PressureIn,VisibilityMPH,Wind Direction,Wind SpeedMPH,Gust SpeedMPH,PrecipitationIn,Events,Conditions,WindDirDegrees,DateUTC
12:53 AM,46.9,43.0,86,30.18,10.0,North,4.6,-,0.00,Rain,Light Rain,360,2013-01-03 06:53:00
1:38 AM,46.4,42.8,87,30.20,6.0,NNW,5.8,-,0.00,Rain,Light Rain,340,2013-01-03 07:38:00
1:53 AM,46.0,43.0,89,30.19,6.0,North,3.5,-,0.00,Rain,Light Rain,350,2013-01-03 07:53:00
2:24 AM,46.4,42.8,87,30.19,6.0,North,4.6,-,0.00,Rain,Light Rain,360,2013-01-03 08:24:00
2:45 AM,46.4,42.8,87,30.18,5.0,Variable,4.6,-,0.00,Rain,Light Rain,0,2013-01-03 08:45:00
2:53 AM,45.0,43.0,93,30.19,5.0,Calm,Calm,-,0.00,Rain,Light Rain,0,2013-01-03 08:53:00
3:53 AM,45.0,42.1,90,30.19,5.0,Calm,Calm,-,0.00,Rain,Light Rain,0,2013-01-03 09:53:00
4:07 AM,44.6,42.8,93,30.19,5.0,North,5.8,-,0.00,Rain,Light Rain,350,2013-01-03 10:07:00
4:53 AM,44.1,42.1,93,30.20,4.0,North,5.8,-,0.01,Rain,Rain,10,2013-01-03 10:53:00
5:20 AM,44.6,41.0,87,30.21,7.0,North,6.9,-,0.00,Rain,Light Rain,360,2013-01-03 11:20:00
5:53 AM,44.1,41.0,89,30.22,8.0,North,8.1,-,0.00,Rain,Light Rain,350,2013-01-03 11:53:00
6:03 AM,44.6,41.0,87,30.21,7.0,North,6.9,-,0.00,Rain,Light Rain,10,2013-01-03 12:03:00
6:11 AM,44.6,41.0,87,30.22,6.0,North,5.8,-,0.00,Rain,Light Rain,360,2013-01-03 12:11:00
6:35 AM,44.6,41.0,87,30.24,8.0,North,4.6,-,0.00,Rain,Light Rain,10,2013-01-03 12:35:00
6:53 AM,44.1,41.0,89,30.23,6.0,Calm,Calm,-,0.00,Rain,Light Rain,0,2013-01-03 12:53:00
7:53 AM,44.1,41.0,89,30.25,7.0,North,3.5,-,0.00,Rain,Light Rain,360,2013-01-03 13:53:00
8:03 AM,44.6,41.0,87,30.24,6.0,North,5.8,-,0.00,Rain,Light Rain,360,2013-01-03 14:03:00
8:12 AM,44.6,41.0,87,30.25,5.0,NNW,6.9,-,0.00,Rain,Light Rain,340,2013-01-03 14:12:00
8:53 AM,43.0,39.9,89,30.27,4.0,North,8.1,-,N/A,Rain,Rain,350,2013-01-03 14:53:00
9:12 AM,42.8,39.2,87,30.28,5.0,North,8.1,-,N/A,Rain,Light Rain,360,2013-01-03 15:12:00
9:53 AM,43.0,39.9,89,30.27,6.0,North,6.9,-,N/A,Rain,Light Rain,360,2013-01-03 15:53:00
10:01 AM,42.8,39.2,87,30.27,6.0,North,5.8,-,N/A,Rain,Light Rain,10,2013-01-03 16:01:00
10:09 AM,44.6,41.0,87,30.26,6.0,NE,4.6,-,N/A,Rain,Light Rain,40,2013-01-03 16:09:00
10:48 AM,44.6,41.0,87,30.27,10.0,North,8.1,-,N/A,,Mostly Cloudy,360,2013-01-03 16:48:00
10:53 AM,45.0,41.0,86,30.27,10.0,North,8.1,-,N/A,,Overcast,350,2013-01-03 16:53:00
11:21 AM,46.4,41.0,81,30.25,10.0,North,9.2,-,N/A,,Overcast,10,2013-01-03 17:21:00
11:53 AM,46.0,42.1,86,30.24,10.0,NNE,4.6,-,N/A,,Overcast,20,2013-01-03 17:53:00
12:53 PM,46.9,41.0,80,30.24,10.0,NNW,10.4,-,N/A,,Overcast,330,2013-01-03 18:53:00
1:53 PM,46.0,39.9,79,30.23,8.0,North,9.2,-,N/A,,Overcast,350,2013-01-03 19:53:00
2:09 PM,46.4,39.2,76,30.22,8.0,North,6.9,-,N/A,,Overcast,360,2013-01-03 20:09:00
2:53 PM,46.9,39.9,77,30.25,9.0,North,6.9,-,N/A,,Overcast,360,2013-01-03 20:53:00
3:27 PM,46.4,39.2,76,30.25,9.0,North,6.9,-,N/A,,Mostly Cloudy,360,2013-01-03 21:27:00
3:43 PM,46.4,39.2,76,30.27,9.0,North,6.9,-,N/A,,Scattered Clouds,350,2013-01-03 21:43:00
3:53 PM,46.0,39.9,79,30.26,10.0,North,10.4,-,N/A,,Scattered Clouds,350,2013-01-03 21:53:00
4:53 PM,45.0,39.0,80,30.27,9.0,North,3.5,-,N/A,,Partly Cloudy,360,2013-01-03 22:53:00
5:53 PM,43.0,39.0,86,30.30,9.0,NNW,3.5,-,N/A,,Clear,340,2013-01-03 23:53:00
6:53 PM,42.1,37.9,85,30.31,9.0,North,3.5,-,N/A,,Clear,350,2013-01-04 00:53:00
7:53 PM,41.0,37.0,86,30.32,8.0,North,5.8,-,N/A,,Clear,350,2013-01-04 01:53:00
8:53 PM,39.9,35.1,83,30.34,10.0,NNW,4.6,-,N/A,,Clear,340,2013-01-04 02:53:00
9:53 PM,39.0,34.0,82,30.35,10.0,North,4.6,-,N/A,,Clear,360,2013-01-04 03:53:00
10:53 PM,37.0,32.0,82,30.34,10.0,North,3.5,-,N/A,,Clear,10,2013-01-04 04:53:00
11:53 PM,36.0,30.9,82,30.34,10.0,Calm,Calm,-,N/A,,Clear,0,2013-01-04 05:53:00